Terug naar catalogus

SS 3

ActiefWetenschapLEO
NORAD 10594·PAYLOAD·🇺🇸 United States

Gelanceerd Dec 8, 1977 vanaf Vandenberg Space Force Base

Loading…

Volgende Passages (komende 24 uur)

TLE

VersSource: Space-Track

Epoch: Sep 14, 2026, 07:57 UTC

1 10594U 77112F   26257.33138664  .00000172  00000-0  74610-4 0  9995
2 10594  63.3315 279.2069 0472840 165.1381 196.4146 14.03196299379809

Volg SS 3 in realtime met AllMySat

Download on the App Store